Back to catalog

BUZZZER-1

AliveCommunicationsSSO
NORAD 62609·PAYLOAD·🇫🇷 France

Launched Jan 14, 2025 from Vandenberg Space Force Base

Loading…

Next Passes (next 24 hours)

TLE

FreshSource: Space-Track

Epoch: Sep 14, 2026, 11:14 UTC

1 62609U 25009A   26257.46831306  .00002193  00000-0  98422-4 0  9996
2 62609  97.3863 334.1556 0008251  32.4927 327.6815 15.22215033 92277

Track BUZZZER-1 in real time with AllMySat

Download on the App Store